Flag for Canada Weather past 2 weeks in Sidney, British Columbia, Canada

57 °F

Rain. Fog.

Feels Like: 57 °F
Forecast: 53 / 60 °F
Wind: 2 mph from North

Location: Victoria Int. Airportb. C.

Current Time: Oct 10, 2015 at 2:20:16 AM

Latest Report: Oct 10, 2015 at 2:00 AM

Visibility: 5 mi

Pressure: 29.79 "Hg

Humidity: 94%

Dew point: 55 °F

Location of SidneyLocation

Historic Weather in Sidney — Graph


Sidney temperature yesterday

Maximum temperature yesterday: 64 °F (at 3:00 PM)
Minimum temperature yesterday: 55 °F (at 12:00 AM)
Average temperature yesterday: 58 °F

Past Weeks' High & Low Weather Summary

High68 °F (Oct 3, 3:00 PM)100% (Sep 25, 1:00 AM)30.24 "Hg (Sep 25, 1:00 AM)
Low41 °F (Sep 27, 5:00 AM)33% (Oct 3, 3:00 PM)29.79 "Hg (Oct 10, 1:00 AM)
Average54 °F84%30.04 "Hg
* Reported Sep 25 1:00 AM — Oct 10 1:00 AM, Sidney, Weather by CustomWeather, © 2015

Note: Actual official high and low records may vary slightly from our data, if they occured in-between our weather recording intervals... More about our weather records


Sidney weather history for previous 24 hours

Time TempWeatherWind HumidityBarometerVisibility
1:00 AM
Sat, Oct 10
55 °FLight rain. Overcast.7 mph94%29.79 "Hg15 mi
12:00 AM55 °FPartly cloudy.3 mph94%29.81 "Hg20 mi
11:00 PM
Fri, Oct 9
55 °FPassing clouds.7 mph94%29.83 "Hg20 mi
10:00 PM55 °FPassing clouds.7 mph94%29.84 "Hg20 mi
9:00 PM59 °FPassing clouds.8 mph88%29.85 "Hg20 mi
8:00 PM61 °FPartly cloudy.8 mph88%29.86 "Hg30 mi
7:00 PM59 °FBroken clouds.8 mph88%29.86 "Hg30 mi
6:00 PM61 °FBroken clouds.9 mph83%29.89 "Hg30 mi
5:00 PM59 °FBroken clouds.10 mph88%29.88 "Hg30 mi
4:00 PM61 °FBroken clouds.13 mph83%29.88 "Hg30 mi
3:00 PM64 °FPartly sunny.8 mph78%29.88 "Hg30 mi
2:00 PM63 °FBroken clouds.6 mph83%29.87 "Hg30 mi
1:00 PM63 °FBroken clouds.3 mph77%29.87 "Hg30 mi
12:00 PM61 °FBroken clouds.2 mph83%29.86 "Hg30 mi
11:00 AM59 °FPartly sunny.3 mph94%29.84 "Hg20 mi
10:00 AM57 °FPartly sunny.3 mph100%29.85 "Hg15 mi
9:00 AM57 °FLight rain. Partly sunny.2 mph94%29.83 "Hg10 mi
8:45 AM57 °FLight rain. Mostly cloudy.3 mph94%29.83 "Hg8 mi
8:00 AM55 °FPassing clouds.2 mph100%29.83 "Hg15 mi
7:00 AM55 °FFog.7 mph100%29.84 "Hg1 mi
6:00 AM55 °FFog.3 mph100%29.85 "Hg1 mi
5:00 AM55 °FFog.3 mph100%29.88 "Hg1 mi
4:00 AM55 °FFog.3 mph100%29.89 "Hg1 mi
3:00 AM55 °FFog.5 mph100%29.93 "Hg1 mi
2:45 AM55 °FFog.5 mph100%29.93 "Hg1 mi
2:00 AM55 °FFog.2 mph94%29.93 "Hg1 mi
Weather by CustomWeather, © 2015

See weather overviewHow to use our weather pages